Location: *
(6.0000°S, 32.3997°W)
Time: 16:10:38
(UTC+00:00)

BREEZE-M DEB (TANK) - Pass Details

Date: 01 April 2020
Orbit: 387 x 14935 km, 45.9° (Epoch: 26 May)

Event Time Altitude Azimuth Distance (km) Brightness Sun altitude
Rises 20:22:25 0° 314° (NW) 7,657 9.5 -2.8°
Reaches altitude 10° 20:29:36 10° 311° (NW) 4,785 8.5 -4.6°
Maximum altitude 20:39:00 54° 235° (SW) 987 4.5 -6.9°
Drops below altitude 10° 20:42:22 10° 155° (SSE) 1,753 5.1 -7.7°
Sets 20:43:51 0° 149° (SSE) 2,430 5.8 -8.1°
